Weather History for KMKE - March, 2013

Change the Weather History Date:

Sunday, March 24, 2013

  Actual Average Record
Temperature  
Mean Temperature 33 °F 38 °F  
Max Temperature 35 °F 45 °F 76 °F (1939)
Min Temperature 30 °F 30 °F 1 °F (1974)
Degree Days  
Heating Degree Days 32 27  
Month to date heating degree days 890 748  
Since 1 July heating degree days 5615 5728  
Cooling Degree Days 0 0  
Month to date cooling degree days 0 0  
Year to date cooling degree days 0 0  
Moisture  
Dew Point 26 °F    
Average Humidity 74    
Maximum Humidity 82    
Minimum Humidity 66    
Precipitation  
Precipitation T in 0.07 in 0.83 in (1920)
Month to date precipitation 1.62 1.63  
Year to date precipitation 7.82 5.04  
Snow  
Snow T in 0.10 in 6.50 in (1937)
Month to date snowfall 7.4 6.0  
Since 1 July snowfall 44.6 43.8  
Snow Depth 1.00 in    
Sea Level Pressure  
Sea Level Pressure 29.89 in    
Wind  
Wind Speed 18 mph (NE)    
Max Wind Speed 25 mph    
Max Gust Speed 33 mph    
Visibility 10 miles    
Events Snow    
T = Trace of Precipitation, MM = Missing Value Source: NWS Daily Summary

Daily Weather History Graph

Daily Weather History Graph

Search for Another Location

Airport or City:

Trip Planner

Search our weather history database for the weather conditions in past years. The results will help you decide how hot, cold, wet, or windy it might be!

Date:

Astronomy

Mar. 24, 2013 Rise Set
Actual Time 6:47 AM CDT 7:08 PM CDT
Civil Twilight 6:18 AM CDT 7:37 PM CDT
Nautical Twilight 5:45 AM CDT 8:10 PM CDT
Astronomical Twilight 5:11 AM CDT 8:45 PM CDT
Moon 4:33 PM CDT (3/24) 5:01 AM CDT (3/24)
Length of Visible Light 13h 18m
Length of Day
12h 21m
Waxing Gibbous, 92% of the Moon is Illuminated
Mar 24
Waxing Gibbous
Mar 27
Full
Apr 2
Last Quarter
Apr 10
New
Apr 18
First Quarter

Hourly Weather History & Observations

Time (CDT) Temp. Windchill Dew Point Humidity Pressure Visibility Wind Dir Wind Speed Gust Speed Precip Events Conditions
12:52 AM 32.0 °F 25.6 °F 23.0 °F 69% 30.07 in 10.0 mi NE 6.9 mph - N/A   Overcast
1:52 AM 32.0 °F 24.8 °F 25.0 °F 75% 30.07 in 10.0 mi ENE 8.1 mph - N/A   Overcast
2:52 AM 32.0 °F 23.0 °F 26.1 °F 79% 30.04 in 10.0 mi NE 11.5 mph - N/A   Overcast
3:30 AM 32.0 °F 22.5 °F 26.6 °F 80% 30.00 in 10.0 mi ENE 12.7 mph - N/A   Overcast
3:52 AM 33.1 °F 23.4 °F 26.1 °F 75% 30.02 in 10.0 mi ENE 13.8 mph - N/A   Overcast
4:52 AM 33.1 °F 23.9 °F 26.1 °F 75% 30.01 in 10.0 mi ENE 12.7 mph - N/A   Overcast
5:52 AM 32.0 °F 21.6 °F 25.0 °F 75% 29.99 in 10.0 mi ENE 15.0 mph - N/A   Overcast
6:52 AM 32.0 °F 21.6 °F 25.0 °F 75% 29.98 in 10.0 mi ENE 15.0 mph - N/A   Overcast
7:52 AM 32.0 °F 21.6 °F 24.1 °F 73% 29.97 in 10.0 mi ENE 15.0 mph - N/A   Overcast
8:52 AM 32.0 °F 20.8 °F 25.0 °F 75% 29.96 in 10.0 mi ENE 17.3 mph - N/A   Overcast
9:52 AM 32.0 °F 20.8 °F 26.1 °F 79% 29.95 in 10.0 mi ENE 17.3 mph - N/A   Overcast
10:52 AM 33.1 °F 22.2 °F 26.1 °F 75% 29.92 in 10.0 mi NE 17.3 mph - N/A   Overcast
11:52 AM 33.8 °F 22.8 °F 28.4 °F 81% 29.87 in 10.0 mi NE 18.4 mph 26.5 mph N/A   Overcast
12:22 PM 33.8 °F 22.2 °F 26.6 °F 75% 29.86 in 10.0 mi NE 20.7 mph 26.5 mph N/A   Overcast
12:52 PM 35.1 °F 24.1 °F 28.0 °F 76% 29.88 in 10.0 mi NE 19.6 mph 26.5 mph N/A   Overcast
1:52 PM 34.0 °F 22.4 °F 27.0 °F 75% 29.85 in 10.0 mi NE 20.7 mph 27.6 mph N/A   Mostly Cloudy
2:52 PM 33.1 °F 21.5 °F 28.0 °F 82% 29.82 in 10.0 mi NE 19.6 mph 27.6 mph N/A   Overcast
3:52 PM 32.0 °F 21.6 °F 28.0 °F 85% 29.79 in 7.0 mi NNE 15.0 mph 24.2 mph 0.00 in Snow Light Snow
4:45 PM 32.0 °F 19.8 °F 28.4 °F 87% 29.74 in 3.0 mi NNE 20.7 mph 28.8 mph 0.00 in Snow Light Snow
4:52 PM 33.1 °F 21.5 °F 28.0 °F 82% 29.75 in 9.0 mi NNE 19.6 mph 26.5 mph 0.00 in Snow Light Snow
5:52 PM 33.1 °F 20.9 °F 26.1 °F 75% 29.76 in 10.0 mi NNE 21.9 mph 31.1 mph 0.00 in   Overcast
6:52 PM 33.1 °F 21.2 °F 27.0 °F 78% 29.78 in 10.0 mi NNE 20.7 mph 29.9 mph 0.00 in   Overcast
7:52 PM 33.1 °F 20.9 °F 25.0 °F 72% 29.80 in 10.0 mi NNE 21.9 mph 29.9 mph N/A   Overcast
8:52 PM 33.1 °F 21.2 °F 24.1 °F 70% 29.80 in 10.0 mi North 20.7 mph 31.1 mph N/A   Overcast
9:52 PM 34.0 °F 22.7 °F 25.0 °F 70% 29.81 in 10.0 mi NNE 19.6 mph 27.6 mph N/A   Overcast
10:39 PM 33.8 °F 22.5 °F 24.8 °F 70% 29.78 in 10.0 mi North 19.6 mph 29.9 mph N/A   Overcast
10:52 PM 32.0 °F 19.5 °F 25.0 °F 75% 29.80 in 10.0 mi North 21.9 mph 29.9 mph N/A   Overcast
11:52 PM 30.9 °F 19.1 °F 25.0 °F 79% 29.79 in 10.0 mi North 18.4 mph 32.2 mph N/A   Overcast